Location: *
(43.9900°N, 3.4811°E)
Time: 00:41:04
(UTC+00:00)

BREEZE M DEB (TANK) - Pass Details

Date: 25 August 2019
Orbit: 285 x 14545 km, 49.5° (Epoch: 17 September)

Event Time Altitude Azimuth Distance (km) Brightness Sun altitude
Rises 21:58:15 0° 278° (W) 2,191 5.9 -30.0°
Reaches altitude 10° 21:59:38 10° 287° (WNW) 1,566 5.2 -30.1°
Enters shadow 22:00:30 20° 296° (WNW) 1,230 4.6 -30.2°
Exits shadow 22:03:09 44° 25° (NNE) 1,072 3.9 -30.4°
Drops below altitude 10° 22:11:05 10° 76° (ENE) 4,429 6.7 -31.1°
Sets 22:18:09 0° 82° (E) 7,315 7.9 -31.7°
